Location: Rounton
(54.4000°N, 1.3500°W)
Time: 19:46:09
(UTC+00:00)

ISS - Visible Passes

Search period start: 04 December 2022 00:00
Search period end: 14 December 2022 00:00
Orbit: 414 x 420 km, 51.6° (Epoch: 04 December)

Date Brightness Start Highest point End Pass type
(mag) Time Alt. Az. Time Alt. Az. Time Alt. Az.
04 Dec -1.4 17:38:32 10° W 17:41:11 22° SSW 17:43:51 10° SSE visible
05 Dec -1.7 16:50:16 10° W 16:53:12 28° SSW 16:56:08 10° SE visible
06 Dec -0.6 17:39:47 10° WSW 17:41:13 12° SW 17:42:41 10° SSW visible
07 Dec -0.8 16:51:00 10° WSW 16:53:16 17° SSW 16:55:31 10° S visible
